| time (UTC) | temp F | wind direction | speed MPH | gust MPH | rain 1hr in | rain 24hr in | rain mn in | humidity % | barometer mb |
| 20260906115558 | 66 | 0 | 0.0 | 2.0 | 0.00 | 0.00 | 0.00 | 97 | 1019.2 |
| 20260906115058 | 66 | 0 | 0.0 | 2.0 | 0.00 | 0.00 | 0.00 | 97 | 1019.1 |
| 20260906114607 | 66 | 0 | 0.0 | 2.0 | 0.00 | 0.00 | 0.00 | 97 | 1019.1 |
| 20260906114057 | 66 | 0 | 0.0 | 2.0 | 0.00 | 0.00 | 0.00 | 97 | 1019.1 |
| 20260906113556 | 66 | 0 | 0.0 | 1.0 | 0.00 | 0.00 | 0.00 | 97 | 1018.9 |
| 20260906113103 | 66 | 0 | 0.0 | 1.0 | 0.00 | 0.00 | 0.00 | 97 | 1018.7 |
| 20260906112558 | 66 | 0 | 0.0 | 2.0 | 0.00 | 0.00 | 0.00 | 97 | 1018.8 |
| 20260906112058 | 66 | 0 | 0.0 | 2.0 | 0.00 | 0.00 | 0.00 | 97 | 1018.7 |
| 20260906111612 | 66 | 17 | 0.0 | 2.0 | 0.00 | 0.00 | 0.00 | 97 | 1018.6 |
| 20260906111058 | 66 | 0 | 0.0 | 2.0 | 0.00 | 0.00 | 0.00 | 97 | 1018.6 |
| 20260906110558 | 66 | 0 | 0.0 | 1.0 | 0.00 | 0.00 | 0.00 | 97 | 1018.6 |
| 20260906105558 | 66 | 0 | 0.0 | 2.0 | 0.00 | 0.00 | 0.00 | 97 | 1018.6 |
| 20260906105057 | 66 | 0 | 0.0 | 2.0 | 0.00 | 0.00 | 0.00 | 97 | 1018.6 |
| 20260906104605 | 66 | 25 | 0.0 | 2.0 | 0.00 | 0.00 | 0.00 | 97 | 1018.6 |
| 20260906104055 | 66 | 0 | 0.0 | 2.0 | 0.00 | 0.00 | 0.00 | 97 | 1018.6 |
| 20260906103557 | 66 | 25 | 0.0 | 1.0 | 0.00 | 0.00 | 0.00 | 97 | 1018.3 |
| 20260906103105 | 66 | 0 | 0.0 | 1.0 | 0.00 | 0.00 | 0.00 | 96 | 1018.1 |
| 20260906102555 | 66 | 0 | 0.0 | 1.0 | 0.00 | 0.00 | 0.00 | 96 | 1018.1 |
| 20260906102058 | 66 | 25 | 0.0 | 1.0 | 0.00 | 0.00 | 0.00 | 96 | 1018.1 |
| 20260906101604 | 66 | 0 | 0.0 | 1.0 | 0.00 | 0.00 | 0.00 | 96 | 1018.1 |
| 20260906101059 | 66 | 0 | 0.0 | 1.0 | 0.00 | 0.00 | 0.00 | 96 | 1018.2 |
| 20260906100558 | 66 | 25 | 0.0 | 2.0 | 0.00 | 0.00 | 0.00 | 96 | 1018.1 |
| 20260906100108 | 66 | 25 | 0.0 | 2.0 | 0.00 | 0.00 | 0.00 | 96 | 1018.2 |
| 20260906095559 | 66 | 0 | 0.0 | 1.0 | 0.00 | 0.00 | 0.00 | 96 | 1018.1 |
| 20260906095059 | 66 | 0 | 0.0 | 2.0 | 0.00 | 0.00 | 0.00 | 96 | 1018.0 |
| 20260906094604 | 66 | 0 | 0.0 | 2.0 | 0.00 | 0.00 | 0.00 | 96 | 1017.9 |
| 20260906094057 | 66 | 0 | 0.0 | 2.0 | 0.00 | 0.00 | 0.00 | 96 | 1017.8 |
| 20260906093558 | 66 | 37 | 0.0 | 2.0 | 0.00 | 0.00 | 0.00 | 95 | 1018.0 |
| 20260906093100 | 67 | 0 | 0.0 | 0.0 | 0.00 | 0.00 | 0.00 | 95 | 1018.0 |
| 20260906092558 | 67 | 0 | 0.0 | 0.0 | 0.00 | 0.00 | 0.00 | 95 | 1017.9 |
| 20260906092058 | 67 | 0 | 0.0 | 0.0 | 0.00 | 0.00 | 0.00 | 95 | 1017.8 |
| 20260906091617 | 67 | 0 | 0.0 | 0.0 | 0.00 | 0.00 | 0.00 | 95 | 1017.8 |
| 20260906091059 | 67 | 0 | 0.0 | 0.0 | 0.00 | 0.00 | 0.00 | 95 | 1017.8 |
| 20260906090557 | 67 | 0 | 0.0 | 0.0 | 0.00 | 0.00 | 0.00 | 95 | 1017.9 |
| 20260906090107 | 67 | 0 | 0.0 | 0.0 | 0.00 | 0.00 | 0.00 | 94 | 1017.9 |
| 20260906085555 | 67 | 0 | 0.0 | 0.0 | 0.00 | 0.00 | 0.00 | 94 | 1017.8 |
| 20260906085100 | 67 | 0 | 0.0 | 0.0 | 0.00 | 0.00 | 0.00 | 94 | 1017.8 |
| 20260906084601 | 67 | 0 | 0.0 | 0.0 | 0.00 | 0.00 | 0.00 | 94 | 1017.8 |
| 20260906084059 | 67 | 0 | 0.0 | 0.0 | 0.00 | 0.00 | 0.00 | 94 | 1017.8 |
| 20260906083558 | 67 | 0 | 0.0 | 0.0 | 0.00 | 0.00 | 0.00 | 94 | 1017.8 |
| 20260906083104 | 67 | 0 | 0.0 | 0.0 | 0.00 | 0.00 | 0.00 | 94 | 1017.8 |
| 20260906082558 | 67 | 0 | 0.0 | 0.0 | 0.00 | 0.00 | 0.00 | 93 | 1017.8 |
| 20260906082102 | 67 | 0 | 0.0 | 0.0 | 0.00 | 0.00 | 0.00 | 93 | 1017.9 |
| 20260906081605 | 67 | 0 | 0.0 | 0.0 | 0.00 | 0.00 | 0.00 | 93 | 1017.8 |
| 20260906081058 | 68 | 0 | 0.0 | 0.0 | 0.00 | 0.00 | 0.00 | 92 | 1017.9 |
| 20260906080558 | 68 | 0 | 0.0 | 0.0 | 0.00 | 0.00 | 0.00 | 92 | 1018.0 |
| 20260906080111 | 68 | 0 | 0.0 | 0.0 | 0.00 | 0.00 | 0.00 | 92 | 1018.0 |
| 20260906075554 | 68 | 0 | 0.0 | 0.0 | 0.00 | 0.00 | 0.00 | 92 | 1018.1 |
| 20260906075054 | 68 | 0 | 0.0 | 0.0 | 0.00 | 0.00 | 0.00 | 92 | 1017.9 |
| 20260906074604 | 68 | 0 | 0.0 | 0.0 | 0.00 | 0.00 | 0.00 | 92 | 1018.1 |
| 20260906074059 | 68 | 0 | 0.0 | 0.0 | 0.00 | 0.00 | 0.00 | 92 | 1017.9 |
| 20260906073559 | 68 | 0 | 0.0 | 0.0 | 0.00 | 0.00 | 0.00 | 91 | 1017.9 |
| 20260906073102 | 68 | 0 | 0.0 | 0.0 | 0.00 | 0.00 | 0.00 | 91 | 1017.9 |
| 20260906072558 | 68 | 0 | 0.0 | 0.0 | 0.00 | 0.00 | 0.00 | 91 | 1018.0 |
| 20260906072058 | 69 | 0 | 0.0 | 0.0 | 0.00 | 0.00 | 0.00 | 91 | 1017.9 |
| 20260906071604 | 69 | 0 | 0.0 | 0.0 | 0.00 | 0.00 | 0.00 | 91 | 1018.0 |
| 20260906071059 | 69 | 0 | 0.0 | 0.0 | 0.00 | 0.00 | 0.00 | 91 | 1018.0 |
| 20260906070558 | 69 | 0 | 0.0 | 0.0 | 0.00 | 0.00 | 0.00 | 91 | 1018.1 |
| 20260906070108 | 69 | 0 | 0.0 | 1.0 | 0.00 | 0.00 | 0.00 | 91 | 1018.1 |
| 20260906065559 | 69 | 0 | 0.0 | 2.0 | 0.00 | 0.00 | 0.00 | 91 | 1018.1 |
| 20260906065058 | 69 | 0 | 0.0 | 2.0 | 0.00 | 0.00 | 0.00 | 91 | 1018.1 |
| 20260906064603 | 69 | 0 | 0.0 | 2.0 | 0.00 | 0.00 | 0.00 | 91 | 1018.0 |
| 20260906064058 | 70 | 0 | 0.0 | 2.0 | 0.00 | 0.00 | 0.00 | 91 | 1018.1 |
| 20260906063558 | 70 | 0 | 0.0 | 2.0 | 0.00 | 0.00 | 0.00 | 90 | 1018.1 |
| 20260906063103 | 70 | 0 | 0.0 | 1.0 | 0.00 | 0.00 | 0.00 | 90 | 1018.0 |
| 20260906062600 | 70 | 0 | 0.0 | 1.0 | 0.00 | 0.00 | 0.00 | 90 | 1018.0 |
| 20260906062057 | 70 | 0 | 0.0 | 2.0 | 0.00 | 0.00 | 0.00 | 90 | 1018.1 |
| 20260906061601 | 70 | 90 | 0.0 | 2.0 | 0.00 | 0.00 | 0.00 | 90 | 1018.0 |
| 20260906061100 | 70 | 5 | 0.0 | 2.0 | 0.00 | 0.00 | 0.00 | 90 | 1018.0 |
| 20260906060554 | 70 | 0 | 0.0 | 2.0 | 0.00 | 0.00 | 0.00 | 90 | 1017.9 |
| 20260906060108 | 70 | 0 | 0.0 | 1.0 | 0.00 | 0.00 | 0.00 | 90 | 1018.0 |
| 20260906055558 | 70 | 0 | 0.0 | 1.0 | 0.00 | 0.00 | 0.00 | 90 | 1018.0 |
| 20260906055058 | 71 | 0 | 0.0 | 2.0 | 0.00 | 0.00 | 0.00 | 90 | 1018.1 |
| 20260906054609 | 71 | 0 | 0.0 | 3.0 | 0.00 | 0.00 | 0.00 | 90 | 1018.2 |
| 20260906054059 | 71 | 54 | 0.0 | 3.0 | 0.00 | 0.00 | 0.00 | 90 | 1018.0 |
| 20260906053558 | 71 | 65 | 1.0 | 3.0 | 0.00 | 0.00 | 0.00 | 90 | 1018.0 |
| 20260906053101 | 71 | 0 | 0.0 | 7.0 | 0.00 | 0.00 | 0.00 | 90 | 1018.0 |
| 20260906052557 | 71 | 0 | 0.0 | 7.0 | 0.00 | 0.00 | 0.00 | 90 | 1018.0 |
| 20260906052058 | 71 | 42 | 0.0 | 5.0 | 0.00 | 0.00 | 0.00 | 90 | 1017.9 |
| 20260906051608 | 71 | 104 | 1.0 | 5.0 | 0.00 | 0.00 | 0.00 | 90 | 1017.9 |
| 20260906051057 | 71 | 37 | 1.0 | 4.0 | 0.00 | 0.00 | 0.00 | 90 | 1017.8 |
| 20260906050600 | 71 | 352 | 0.0 | 5.0 | 0.00 | 0.00 | 0.00 | 91 | 1017.9 |
| 20260906050107 | 71 | 0 | 1.0 | 5.0 | 0.00 | 0.00 | 0.00 | 91 | 1017.8 |
| 20260906045602 | 71 | 0 | 0.0 | 4.0 | 0.00 | 0.00 | 0.00 | 91 | 1017.8 |
| 20260906045058 | 71 | 343 | 0.0 | 3.0 | 0.00 | 0.00 | 0.00 | 91 | 1017.8 |
| 20260906044605 | 71 | 0 | 0.0 | 3.0 | 0.00 | 0.00 | 0.00 | 91 | 1017.7 |
| 20260906044058 | 71 | 348 | 0.0 | 2.0 | 0.00 | 0.00 | 0.00 | 91 | 1017.8 |
| 20260906043557 | 71 | 290 | 0.0 | 3.0 | 0.00 | 0.00 | 0.00 | 91 | 1017.7 |
| 20260906043113 | 71 | 360 | 0.0 | 3.0 | 0.00 | 0.00 | 0.00 | 91 | 1017.6 |
| 20260906042558 | 71 | 336 | 1.0 | 2.0 | 0.00 | 0.00 | 0.00 | 91 | 1017.6 |
| 20260906042058 | 71 | 0 | 0.0 | 3.0 | 0.00 | 0.00 | 0.00 | 90 | 1017.5 |
| 20260906041619 | 71 | 0 | 0.0 | 3.0 | 0.00 | 0.00 | 0.00 | 90 | 1017.4 |
| 20260906041059 | 70 | 352 | 1.0 | 3.0 | 0.00 | 0.00 | 0.00 | 90 | 1017.3 |
| 20260906040558 | 70 | 0 | 0.0 | 2.0 | 0.00 | 0.00 | 0.00 | 90 | 1017.2 |
| 20260906040118 | 70 | 0 | 0.0 | 3.0 | 0.00 | 0.00 | 0.00 | 90 | 1017.2 |
| 20260906035559 | 71 | 0 | 0.0 | 4.0 | 0.00 | 0.00 | 0.00 | 90 | 1017.1 |
| 20260906035057 | 71 | 41 | 1.0 | 4.0 | 0.00 | 0.00 | 0.00 | 89 | 1017.1 |
| 20260906034603 | 71 | 98 | 0.0 | 2.0 | 0.00 | 0.00 | 0.00 | 89 | 1017.1 |
| 20260906034056 | 71 | 0 | 0.0 | 6.0 | 0.00 | 0.00 | 0.00 | 89 | 1017.0 |
| 20260906033559 | 71 | 0 | 0.0 | 10.0 | 0.00 | 0.00 | 0.00 | 89 | 1017.0 |
| 20260906033104 | 71 | 26 | 1.0 | 10.0 | 0.00 | 0.00 | 0.00 | 89 | 1016.8 |
| 20260906032601 | 71 | 332 | 2.0 | 10.0 | 0.00 | 0.00 | 0.00 | 89 | 1016.8 |
| 20260906032058 | 71 | 68 | 1.0 | 6.0 | 0.00 | 0.00 | 0.00 | 88 | 1016.8 |
| 20260906031609 | 71 | 45 | 1.0 | 5.0 | 0.00 | 0.00 | 0.00 | 88 | 1016.9 |
| 20260906031057 | 71 | 55 | 0.0 | 3.0 | 0.00 | 0.00 | 0.00 | 88 | 1016.8 |
| 20260906030557 | 71 | 0 | 0.0 | 7.0 | 0.00 | 0.00 | 0.00 | 87 | 1016.8 |
| 20260906030116 | 71 | 5 | 1.0 | 7.0 | 0.00 | 0.00 | 0.00 | 87 | 1016.9 |
| 20260906025556 | 71 | 333 | 1.0 | 5.0 | 0.00 | 0.00 | 0.00 | 87 | 1016.8 |
| 20260906025057 | 71 | 21 | 1.0 | 5.0 | 0.00 | 0.00 | 0.00 | 86 | 1016.9 |
| 20260906024624 | 71 | 77 | 1.0 | 7.0 | 0.00 | 0.00 | 0.00 | 86 | 1016.9 |
| 20260906024056 | 72 | 13 | 1.0 | 11.0 | 0.00 | 0.00 | 0.00 | 86 | 1017.0 |
| 20260906023558 | 72 | 59 | 2.0 | 11.0 | 0.00 | 0.00 | 0.00 | 86 | 1017.1 |
| 20260906023104 | 72 | 41 | 1.0 | 6.0 | 0.00 | 0.00 | 0.00 | 86 | 1017.0 |
| 20260906022600 | 72 | 87 | 0.0 | 7.0 | 0.00 | 0.00 | 0.00 | 86 | 1017.0 |
| 20260906022056 | 72 | 340 | 2.0 | 7.0 | 0.00 | 0.00 | 0.00 | 86 | 1016.9 |
| 20260906021611 | 72 | 89 | 1.0 | 9.0 | 0.00 | 0.00 | 0.00 | 86 | 1016.9 |
| 20260906021056 | 72 | 31 | 1.0 | 9.0 | 0.00 | 0.00 | 0.00 | 86 | 1016.9 |
| 20260906020556 | 72 | 61 | 1.0 | 9.0 | 0.00 | 0.00 | 0.00 | 85 | 1016.9 |
| 20260906020103 | 72 | 352 | 1.0 | 10.0 | 0.00 | 0.00 | 0.00 | 85 | 1016.8 |
| 20260906015558 | 72 | 45 | 2.0 | 10.0 | 0.00 | 0.00 | 0.00 | 85 | 1016.9 |
| 20260906015056 | 72 | 24 | 1.0 | 6.0 | 0.00 | 0.00 | 0.00 | 85 | 1017.0 |
| 20260906014609 | 72 | 5 | 1.0 | 6.0 | 0.00 | 0.00 | 0.00 | 85 | 1017.0 |
| 20260906014056 | 72 | 101 | 2.0 | 9.0 | 0.00 | 0.00 | 0.00 | 84 | 1017.0 |
| 20260906013556 | 72 | 352 | 2.0 | 9.0 | 0.00 | 0.00 | 0.00 | 84 | 1017.0 |
| 20260906013103 | 72 | 22 | 3.0 | 9.0 | 0.00 | 0.00 | 0.00 | 84 | 1017.0 |
| 20260906012558 | 72 | 342 | 2.0 | 9.0 | 0.00 | 0.00 | 0.00 | 84 | 1017.1 |
| 20260906012059 | 72 | 85 | 2.0 | 8.0 | 0.00 | 0.00 | 0.00 | 84 | 1017.0 |
| 20260906011605 | 72 | 44 | 3.0 | 8.0 | 0.00 | 0.00 | 0.00 | 84 | 1016.9 |
| 20260906011056 | 72 | 67 | 2.0 | 6.0 | 0.00 | 0.00 | 0.00 | 84 | 1017.0 |
| 20260906010556 | 72 | 38 | 1.0 | 6.0 | 0.00 | 0.00 | 0.00 | 84 | 1017.1 |
| 20260906010119 | 72 | 338 | 2.0 | 6.0 | 0.00 | 0.00 | 0.00 | 84 | 1016.9 |
| 20260906005556 | 72 | 67 | 2.0 | 5.0 | 0.00 | 0.00 | 0.00 | 84 | 1016.8 |
| 20260906005056 | 72 | 0 | 2.0 | 16.0 | 0.00 | 0.00 | 0.00 | 83 | 1016.8 |
| 20260906004610 | 72 | 316 | 3.0 | 16.0 | 0.00 | 0.00 | 0.00 | 83 | 1016.8 |
| 20260906004056 | 72 | 61 | 1.0 | 12.0 | 0.00 | 0.00 | 0.00 | 83 | 1016.8 |
| 20260906003557 | 72 | 284 | 2.0 | 12.0 | 0.00 | 0.00 | 0.00 | 83 | 1016.7 |
| 20260906003120 | 73 | 26 | 2.0 | 8.0 | 0.00 | 0.00 | 0.00 | 83 | 1016.5 |
| 20260906002557 | 73 | 23 | 3.0 | 9.0 | 0.00 | 0.00 | 0.00 | 83 | 1016.5 |
| 20260906002059 | 73 | 5 | 2.0 | 13.0 | 0.00 | 0.00 | 0.00 | 82 | 1016.6 |
| 20260906001610 | 73 | 46 | 2.0 | 13.0 | 0.00 | 0.00 | 0.00 | 82 | 1016.5 |
| 20260906001056 | 74 | 42 | 2.0 | 13.0 | 0.00 | 0.00 | 0.00 | 81 | 1016.4 |
| 20260906000556 | 74 | 5 | 3.0 | 13.0 | 0.00 | 0.00 | 0.00 | 81 | 1016.4 |
| 20260906000106 | 74 | 11 | 2.0 | 12.0 | 0.00 | 0.00 | 0.00 | 80 | 1016.2 |
| 20260905235556 | 75 | 26 | 2.0 | 13.0 | 0.00 | 0.00 | 0.00 | 80 | 1016.2 |
| 20260905235056 | 75 | 17 | 0.0 | 13.0 | 0.00 | 0.00 | 0.00 | 79 | 1016.1 |
| 20260905234609 | 75 | 40 | 2.0 | 11.0 | 0.00 | 0.00 | 0.00 | 79 | 1016.2 |
| 20260905234057 | 76 | 61 | 3.0 | 8.0 | 0.00 | 0.00 | 0.00 | 78 | 1016.1 |
| 20260905233558 | 76 | 321 | 2.0 | 7.0 | 0.00 | 0.00 | 0.00 | 78 | 1016.2 |
| 20260905233102 | 76 | 29 | 1.0 | 13.0 | 0.00 | 0.00 | 0.00 | 78 | 1016.0 |
| 20260905232556 | 77 | 32 | 1.0 | 13.0 | 0.00 | 0.00 | 0.00 | 77 | 1016.1 |
| 20260905232058 | 77 | 56 | 3.0 | 13.0 | 0.00 | 0.00 | 0.00 | 77 | 1016.1 |
| 20260905231603 | 77 | 352 | 2.0 | 10.0 | 0.00 | 0.00 | 0.00 | 76 | 1016.0 |
| 20260905231056 | 77 | 67 | 1.0 | 7.0 | 0.00 | 0.00 | 0.00 | 75 | 1015.9 |
| 20260905230557 | 78 | 53 | 1.0 | 7.0 | 0.00 | 0.00 | 0.00 | 75 | 1015.9 |
| 20260905230111 | 78 | 352 | 2.0 | 11.0 | 0.00 | 0.00 | 0.00 | 74 | 1015.8 |
| 20260905225558 | 78 | 51 | 2.0 | 14.0 | 0.00 | 0.00 | 0.00 | 74 | 1015.7 |
| 20260905225057 | 79 | 99 | 3.0 | 14.0 | 0.00 | 0.00 | 0.00 | 74 | 1015.6 |
| 20260905224600 | 79 | 24 | 2.0 | 14.0 | 0.00 | 0.00 | 0.00 | 74 | 1015.5 |
| 20260905224058 | 79 | 50 | 3.0 | 11.0 | 0.00 | 0.00 | 0.00 | 74 | 1015.5 |
| 20260905223558 | 79 | 32 | 3.0 | 9.0 | 0.00 | 0.00 | 0.00 | 74 | 1015.6 |
| 20260905223104 | 79 | 287 | 2.0 | 8.0 | 0.00 | 0.00 | 0.00 | 74 | 1015.5 |
| 20260905222558 | 79 | 99 | 1.0 | 14.0 | 0.00 | 0.00 | 0.00 | 73 | 1015.5 |
| 20260905222100 | 79 | 315 | 3.0 | 14.0 | 0.00 | 0.00 | 0.00 | 72 | 1015.4 |
| 20260905221600 | 79 | 137 | 4.0 | 10.0 | 0.00 | 0.00 | 0.00 | 71 | 1015.3 |
| 20260905221058 | 79 | 57 | 1.0 | 10.0 | 0.00 | 0.00 | 0.00 | 71 | 1015.1 |
| 20260905220557 | 80 | 24 | 2.0 | 8.0 | 0.00 | 0.00 | 0.00 | 72 | 1015.2 |
| 20260905220110 | 80 | 351 | 1.0 | 6.0 | 0.00 | 0.00 | 0.00 | 72 | 1015.4 |
| 20260905215558 | 80 | 350 | 2.0 | 6.0 | 0.00 | 0.00 | 0.00 | 71 | 1015.5 |
| 20260905215057 | 80 | 352 | 2.0 | 4.0 | 0.00 | 0.00 | 0.00 | 72 | 1015.5 |
| 20260905214607 | 80 | 315 | 0.0 | 3.0 | 0.00 | 0.00 | 0.00 | 73 | 1015.5 |
| 20260905214058 | 80 | 0 | 1.0 | 5.0 | 0.00 | 0.00 | 0.00 | 71 | 1015.4 |
| 20260905213558 | 80 | 306 | 1.0 | 7.0 | 0.00 | 0.00 | 0.00 | 72 | 1015.5 |
| 20260905213105 | 80 | 9 | 1.0 | 7.0 | 0.00 | 0.00 | 0.00 | 72 | 1015.3 |
| 20260905212559 | 80 | 107 | 2.0 | 7.0 | 0.00 | 0.00 | 0.00 | 72 | 1015.3 |
| 20260905212058 | 80 | 51 | 1.0 | 5.0 | 0.00 | 0.00 | 0.00 | 72 | 1015.4 |
| 20260905211608 | 80 | 339 | 1.0 | 5.0 | 0.00 | 0.00 | 0.00 | 72 | 1015.4 |
| 20260905211054 | 80 | 0 | 1.0 | 4.0 | 0.00 | 0.00 | 0.00 | 74 | 1015.5 |
| 20260905210558 | 80 | 212 | 1.0 | 4.0 | 0.00 | 0.00 | 0.00 | 74 | 1015.4 |
| 20260905205558 | 80 | 56 | 1.0 | 3.0 | 0.00 | 0.00 | 0.00 | 73 | 1015.5 |
| 20260905205058 | 80 | 98 | 1.0 | 11.0 | 0.00 | 0.00 | 0.00 | 73 | 1015.5 |
| 20260905204609 | 80 | 309 | 1.0 | 11.0 | 0.00 | 0.00 | 0.00 | 73 | 1015.6 |
| 20260905204059 | 80 | 5 | 3.0 | 11.0 | 0.00 | 0.00 | 0.00 | 73 | 1015.7 |
| 20260905203558 | 79 | 316 | 1.0 | 6.0 | 0.00 | 0.00 | 0.00 | 74 | 1015.7 |
| 20260905203103 | 79 | 317 | 1.0 | 6.0 | 0.00 | 0.00 | 0.00 | 75 | 1015.7 |
| 20260905202557 | 79 | 352 | 1.0 | 6.0 | 0.00 | 0.00 | 0.00 | 76 | 1015.7 |
| 20260905202054 | 79 | 126 | 2.0 | 6.0 | 0.00 | 0.00 | 0.00 | 77 | 1015.7 |
| 20260905201605 | 79 | 352 | 2.0 | 6.0 | 0.00 | 0.00 | 0.00 | 79 | 1015.7 |
| 20260905201059 | 78 | 22 | 1.0 | 5.0 | 0.00 | 0.00 | 0.00 | 77 | 1015.7 |
| 20260905200601 | 78 | 0 | 2.0 | 5.0 | 0.00 | 0.00 | 0.00 | 77 | 1015.7 |
| 20260905200113 | 78 | 0 | 1.0 | 4.0 | 0.00 | 0.00 | 0.00 | 77 | 1015.7 |
| 20260905195557 | 79 | 313 | 1.0 | 6.0 | 0.00 | 0.00 | 0.00 | 77 | 1015.6 |
| 20260905195056 | 78 | 74 | 1.0 | 6.0 | 0.00 | 0.00 | 0.00 | 77 | 1015.7 |
| 20260905194603 | 79 | 0 | 1.0 | 6.0 | 0.00 | 0.00 | 0.00 | 78 | 1015.7 |
| 20260905194055 | 78 | 0 | 0.0 | 4.0 | 0.00 | 0.00 | 0.00 | 77 | 1015.7 |
| 20260905193556 | 78 | 5 | 2.0 | 5.0 | 0.00 | 0.00 | 0.00 | 77 | 1015.8 |
| 20260905193111 | 79 | 32 | 1.0 | 5.0 | 0.00 | 0.00 | 0.00 | 78 | 1015.8 |
| 20260905192558 | 79 | 88 | 2.0 | 7.0 | 0.00 | 0.00 | 0.00 | 77 | 1015.9 |
| 20260905192055 | 79 | 336 | 2.0 | 7.0 | 0.00 | 0.00 | 0.00 | 77 | 1015.9 |
| 20260905191611 | 79 | 326 | 1.0 | 4.0 | 0.00 | 0.00 | 0.00 | 77 | 1016.0 |
| 20260905191054 | 79 | 340 | 1.0 | 5.0 | 0.00 | 0.00 | 0.00 | 76 | 1016.0 |
| 20260905190558 | 79 | 172 | 2.0 | 6.0 | 0.00 | 0.00 | 0.00 | 76 | 1015.9 |
| 20260905190107 | 79 | 60 | 1.0 | 6.0 | 0.00 | 0.00 | 0.00 | 76 | 1016.0 |
| 20260905185555 | 79 | 315 | 2.0 | 6.0 | 0.00 | 0.00 | 0.00 | 76 | 1016.1 |
| 20260905185056 | 79 | 0 | 1.0 | 6.0 | 0.00 | 0.00 | 0.00 | 76 | 1016.1 |
| 20260905184612 | 79 | 360 | 2.0 | 7.0 | 0.00 | 0.00 | 0.00 | 75 | 1016.1 |
| 20260905184056 | 80 | 15 | 1.0 | 7.0 | 0.00 | 0.00 | 0.00 | 75 | 1016.1 |
| 20260905183557 | 80 | 326 | 1.0 | 6.0 | 0.00 | 0.00 | 0.00 | 74 | 1016.1 |
| 20260905183106 | 80 | 37 | 2.0 | 9.0 | 0.00 | 0.00 | 0.00 | 74 | 1016.2 |
| 20260905182556 | 80 | 318 | 2.0 | 9.0 | 0.00 | 0.00 | 0.00 | 74 | 1016.2 |
| 20260905182056 | 81 | 324 | 2.0 | 9.0 | 0.00 | 0.00 | 0.00 | 74 | 1016.2 |
| 20260905181608 | 81 | 342 | 2.0 | 5.0 | 0.00 | 0.00 | 0.00 | 73 | 1016.1 |
| 20260905181057 | 81 | 340 | 1.0 | 5.0 | 0.00 | 0.00 | 0.00 | 72 | 1016.1 |
| 20260905180600 | 81 | 17 | 1.0 | 9.0 | 0.00 | 0.00 | 0.00 | 71 | 1016.1 |
| 20260905180108 | 82 | 343 | 2.0 | 9.0 | 0.00 | 0.00 | 0.00 | 70 | 1016.0 |
| 20260905175556 | 82 | 32 | 2.0 | 9.0 | 0.00 | 0.00 | 0.00 | 71 | 1015.9 |
| 20260905175055 | 82 | 313 | 1.0 | 7.0 | 0.00 | 0.00 | 0.00 | 72 | 1016.1 |
| 20260905174605 | 82 | 48 | 1.0 | 8.0 | 0.00 | 0.00 | 0.00 | 71 | 1015.8 |
| 20260905174057 | 82 | 25 | 4.0 | 9.0 | 0.00 | 0.00 | 0.00 | 72 | 1015.9 |
| 20260905173557 | 82 | 352 | 2.0 | 10.0 | 0.00 | 0.00 | 0.00 | 73 | 1015.8 |
| 20260905173103 | 82 | 73 | 2.0 | 10.0 | 0.00 | 0.00 | 0.00 | 73 | 1015.8 |
| 20260905172556 | 82 | 191 | 2.0 | 10.0 | 0.00 | 0.00 | 0.00 | 72 | 1015.9 |
| 20260905172056 | 82 | 344 | 2.0 | 10.0 | 0.00 | 0.00 | 0.00 | 73 | 1015.9 |
| 20260905171607 | 82 | 64 | 2.0 | 8.0 | 0.00 | 0.00 | 0.00 | 72 | 1015.9 |
| 20260905171057 | 82 | 91 | 2.0 | 6.0 | 0.00 | 0.00 | 0.00 | 72 | 1015.9 |
| 20260905170556 | 82 | 306 | 2.0 | 5.0 | 0.00 | 0.00 | 0.00 | 71 | 1016.0 |
| 20260905170114 | 83 | 328 | 1.0 | 5.0 | 0.00 | 0.00 | 0.00 | 71 | 1015.9 |
| 20260905165555 | 83 | 37 | 1.0 | 6.0 | 0.00 | 0.00 | 0.00 | 71 | 1015.9 |
| 20260905165055 | 83 | 327 | 1.0 | 6.0 | 0.00 | 0.00 | 0.00 | 70 | 1015.9 |
| 20260905164603 | 83 | 338 | 2.0 | 4.0 | 0.00 | 0.00 | 0.00 | 71 | 1016.0 |
| 20260905164056 | 83 | 281 | 1.0 | 4.0 | 0.00 | 0.00 | 0.00 | 72 | 1016.0 |
| 20260905163556 | 83 | 279 | 1.0 | 4.0 | 0.00 | 0.00 | 0.00 | 72 | 1016.0 |
| 20260905163114 | 83 | 346 | 1.0 | 4.0 | 0.00 | 0.00 | 0.00 | 72 | 1016.0 |
| 20260905162558 | 83 | 352 | 1.0 | 7.0 | 0.00 | 0.00 | 0.00 | 72 | 1016.0 |
| 20260905162055 | 82 | 19 | 1.0 | 7.0 | 0.00 | 0.00 | 0.00 | 73 | 1015.9 |
| 20260905161605 | 82 | 123 | 1.0 | 5.0 | 0.00 | 0.00 | 0.00 | 73 | 1015.9 |
| 20260905161056 | 82 | 40 | 1.0 | 6.0 | 0.00 | 0.00 | 0.00 | 74 | 1016.0 |
| 20260905160555 | 82 | 313 | 2.0 | 7.0 | 0.00 | 0.00 | 0.00 | 74 | 1016.0 |
| 20260905160107 | 82 | 25 | 2.0 | 7.0 | 0.00 | 0.00 | 0.00 | 76 | 1015.9 |
| 20260905155556 | 81 | 57 | 2.0 | 9.0 | 0.00 | 0.00 | 0.00 | 75 | 1015.9 |
| 20260905155057 | 80 | 0 | 2.0 | 9.0 | 0.00 | 0.00 | 0.00 | 77 | 1015.8 |
| 20260905154605 | 80 | 287 | 3.0 | 9.0 | 0.00 | 0.00 | 0.00 | 78 | 1015.7 |
| 20260905154056 | 79 | 336 | 1.0 | 4.0 | 0.00 | 0.00 | 0.00 | 81 | 1015.7 |
| 20260905153557 | 79 | 48 | 1.0 | 4.0 | 0.00 | 0.00 | 0.00 | 84 | 1015.8 |
| 20260905153104 | 78 | 19 | 1.0 | 6.0 | 0.00 | 0.00 | 0.00 | 83 | 1015.8 |
| 20260905152557 | 78 | 86 | 1.0 | 9.0 | 0.00 | 0.00 | 0.00 | 84 | 1015.7 |
| 20260905152055 | 78 | 325 | 2.0 | 9.0 | 0.00 | 0.00 | 0.00 | 83 | 1015.7 |
| 20260905151606 | 77 | 178 | 3.0 | 9.0 | 0.00 | 0.00 | 0.00 | 84 | 1015.6 |
| 20260905151057 | 77 | 62 | 3.0 | 8.0 | 0.00 | 0.00 | 0.00 | 84 | 1015.5 |
| 20260905150556 | 77 | 346 | 1.0 | 9.0 | 0.00 | 0.00 | 0.00 | 86 | 1015.4 |
| 20260905150118 | 77 | 61 | 1.0 | 9.0 | 0.00 | 0.00 | 0.00 | 85 | 1015.4 |
| 20260905145557 | 77 | 28 | 3.0 | 10.0 | 0.00 | 0.01 | 0.00 | 85 | 1015.5 |
| 20260905145056 | 77 | 114 | 4.0 | 10.0 | 0.00 | 0.01 | 0.00 | 87 | 1015.5 |
| 20260905144609 | 76 | 339 | 1.0 | 8.0 | 0.00 | 0.01 | 0.00 | 87 | 1015.4 |
| 20260905144057 | 76 | 5 | 2.0 | 8.0 | 0.00 | 0.01 | 0.00 | 88 | 1015.4 |
| 20260905143558 | 76 | 0 | 2.0 | 5.0 | 0.00 | 0.01 | 0.00 | 90 | 1015.3 |
| 20260905143115 | 76 | 45 | 0.0 | 6.0 | 0.00 | 0.01 | 0.00 | 92 | 1015.3 |
| 20260905142558 | 75 | 360 | 1.0 | 8.0 | 0.00 | 0.01 | 0.00 | 92 | 1015.3 |
| 20260905142057 | 75 | 32 | 2.0 | 8.0 | 0.00 | 0.01 | 0.00 | 93 | 1015.5 |
| 20260905141605 | 75 | 340 | 2.0 | 8.0 | 0.00 | 0.01 | 0.00 | 94 | 1015.3 |
| 20260905141059 | 74 | 47 | 2.0 | 9.0 | 0.00 | 0.01 | 0.00 | 95 | 1015.2 |
| 20260905140558 | 74 | 9 | 1.0 | 9.0 | 0.00 | 0.01 | 0.00 | 96 | 1015.3 |
| 20260905140110 | 74 | 75 | 2.0 | 9.0 | 0.00 | 0.01 | 0.00 | 96 | 1015.1 |
| 20260905135556 | 73 | 40 | 1.0 | 9.0 | 0.00 | 0.01 | 0.00 | 96 | 1015.1 |
| 20260905135055 | 73 | 22 | 2.0 | 9.0 | 0.00 | 0.01 | 0.00 | 96 | 1015.1 |
| 20260905134611 | 73 | 352 | 1.0 | 6.0 | 0.00 | 0.01 | 0.00 | 96 | 1015.1 |
| 20260905134054 | 73 | 352 | 1.0 | 3.0 | 0.00 | 0.01 | 0.00 | 96 | 1015.1 |
| 20260905133557 | 73 | 35 | 1.0 | 6.0 | 0.00 | 0.01 | 0.00 | 96 | 1015.3 |
| 20260905133106 | 73 | 36 | 1.0 | 6.0 | 0.00 | 0.01 | 0.00 | 96 | 1015.2 |
| 20260905132559 | 73 | 299 | 2.0 | 7.0 | 0.00 | 0.01 | 0.00 | 96 | 1015.4 |
| 20260905132056 | 73 | 327 | 1.0 | 7.0 | 0.00 | 0.01 | 0.00 | 97 | 1015.4 |
| 20260905131605 | 73 | 352 | 2.0 | 7.0 | 0.00 | 0.01 | 0.00 | 97 | 1015.5 |
| 20260905131057 | 74 | 332 | 2.0 | 6.0 | 0.00 | 0.01 | 0.00 | 97 | 1015.5 |
| 20260905130558 | 74 | 11 | 1.0 | 6.0 | 0.00 | 0.01 | 0.00 | 97 | 1015.3 |
| 20260905130104 | 74 | 0 | 0.0 | 3.0 | 0.00 | 0.01 | 0.00 | 97 | 1015.0 |
| 20260905125555 | 74 | 338 | 1.0 | 3.0 | 0.00 | 0.01 | 0.00 | 97 | 1014.8 |
| 20260905125055 | 74 | 0 | 1.0 | 4.0 | 0.00 | 0.01 | 0.00 | 97 | 1014.7 |
| 20260905124603 | 74 | 32 | 0.0 | 5.0 | 0.00 | 0.01 | 0.00 | 97 | 1014.6 |
| 20260905124056 | 74 | 346 | 1.0 | 5.0 | 0.00 | 0.01 | 0.00 | 97 | 1014.5 |
| 20260905123557 | 74 | 47 | 1.0 | 5.0 | 0.00 | 0.01 | 0.00 | 97 | 1014.4 |
| 20260905123108 | 74 | 360 | 0.0 | 4.0 | 0.00 | 0.01 | 0.00 | 97 | 1014.4 |
| 20260905122558 | 73 | 0 | 1.0 | 8.0 | 0.00 | 0.01 | 0.00 | 97 | 1014.4 |
| 20260905122058 | 73 | 41 | 1.0 | 8.0 | 0.00 | 0.01 | 0.00 | 97 | 1014.3 |
| 20260905121605 | 73 | 63 | 1.0 | 5.0 | 0.00 | 0.01 | 0.00 | 97 | 1014.2 |
| 20260905121058 | 73 | 0 | 0.0 | 1.0 | 0.00 | 0.01 | 0.00 | 97 | 1014.2 |
| 20260905120557 | 73 | 0 | 0.0 | 1.0 | 0.00 | 0.01 | 0.00 | 97 | 1014.2 |
| 20260905120107 | 73 | 0 | 0.0 | 2.0 | 0.00 | 0.01 | 0.00 | 96 | 1014.1 |